bkk.hu alexa rank chart, bkk.hu alexa rank daily changes

bkk.hu alexa rank chart, bkk.hu alexa rank daily changes

bkk.hu
Actual rank:
42 741

RANK HISTORY

Date Rank Diff
2016/12/10 42 741 -569
2016/12/09 43 310 -550
2016/12/08 43 860 +67
2016/12/07 43 793 +98
2016/12/06 43 695 -63
2016/12/05 43 758 -149
2016/12/04 43 907 -552
2016/12/02 44 459 -1 014
2016/12/01 45 473 -309
2016/11/30 45 782 +111
2016/11/29 45 671 -343
2016/11/28 46 014 -449
2016/11/27 46 463 -883
2016/11/26 47 346 -177
2016/11/25 47 523 -625
2016/11/24 48 148 +75
2016/11/23 48 073 -2 333
2016/11/19 50 406 -104
2016/11/18 50 510 -338
2016/11/17 50 848 +282
2016/11/16 50 566 -244
2016/11/15 50 810 -357
2016/11/14 51 167 -963
2016/11/13 52 130 -370
2016/11/12 52 500 -292
2016/11/11 52 792 -403
2016/11/10 53 195 +705
2016/11/09 52 490 +395
2016/11/08 52 095 -22
2016/11/07 52 117 -616
2016/11/06 52 733 -164
2016/11/05 52 897 -1 009
2016/11/04 53 906 +509
2016/11/03 53 397 +189
2016/11/02 53 208 +375
2016/11/01 52 833 +23
2016/10/31 52 810 +587
2016/10/30 52 223 -355
2016/10/29 52 578 -59
2016/10/28 52 637 +237
2016/10/27 52 400 +500
2016/10/26 51 900 +599
2016/10/25 51 301 +356
2016/10/24 50 945 -7
2016/10/23 50 952 +435
2016/10/22 50 517 +734
2016/10/21 49 783 +414
2016/10/20 49 369 +758
2016/10/19 48 611 +578
2016/10/18 48 033 +605
2016/10/17 47 428 +133
2016/10/16 47 295 +861
2016/10/15 46 434 +9 652
2016/10/14 36 782 -140
2016/10/13 36 922 +131
2016/10/12 36 791 +937
2016/10/11 35 854

WIDGET FOR YOUR SITE

DOMAINS WITH THE NEAREST RANK

Domain Rank
sss.gov.ph 42 736
dgpot.com 42 737
thevocket.com 42 738
mnsu.edu 42 739
jpboy1069.com 42 740
bkk.hu 42 741
greengeeks.com 42 742
dabdate.com 42 743
book24.ru 42 744
humankinetics.com 42 745
ankisrs.net 42 746

DOMAINS WITH THE NEAREST RANK BY TLD .hu

Domain Rank
aqua.hu 40 660
mandiner.hu 41 698
scr.hu 41 736
khb.hu 42 258
posta.hu 42 702
bkk.hu 42 741
cinemacity.hu 42 831
kh.hu 42 838
euronics.hu 43 016
indamail.hu 43 279
netpincer.hu 44 106